Flag for U.S.A. Weather past 2 weeks in Portland, Oregon, U.S.A.

Now
69 °F

Partly sunny.


Feels Like: 69 °F
Forecast: 53 / 78 °F
Wind: 7 mph from North

Location: Portland International Airport

Current Time: May 26, 2015 at 7:42:24 PM

Latest Report: May 26, 2015 at 6:53 PM


Visibility: 10 mi

Pressure: 29.99 "Hg

Humidity: 51%

Dew point: 50 °F

Location of PortlandLocation

Historic Weather in Portland — Graph

°F

Portland temperature yesterday

Maximum temperature yesterday: 66 °F (at 5:53 PM)
Minimum temperature yesterday: 53 °F (at 2:53 AM)
Average temperature yesterday: 58 °F

Past Weeks' High & Low Weather Summary

 TemperatureHumidityPressure
High78 °F (May 18, 4:53 PM)100% (May 19, 6:53 AM)30.19 "Hg (May 19, 6:53 AM)
Low49 °F (May 12, 6:53 AM)38% (May 14, 3:53 PM)29.78 "Hg (May 14, 6:53 PM)
Average58 °F75%29.99 "Hg
* Reported May 11 5:53 PM — May 26 5:53 PM, Portland, Weather by CustomWeather, © 2015

Note: Actual official high and low records may vary slightly from our data, if they occured in-between our weather recording intervals... More about our weather records

Advertising

Portland weather history for previous 24 hours

 ConditionsComfort  
Time TempWeatherWind HumidityBarometerVisibility
5:53 PM
Tue, May 26
70 °FPassing clouds.6 mph47%29.99 "Hg10 mi
4:53 PM71 °FPassing clouds.No wind45%30.01 "Hg10 mi
3:53 PM68 °FPassing clouds.No wind51%30.02 "Hg10 mi
2:53 PM68 °FScattered clouds.3 mph51%30.03 "Hg10 mi
1:53 PM65 °FPartly sunny.6 mph54%30.05 "Hg10 mi
12:53 PM63 °FOvercast.7 mph58%30.05 "Hg10 mi
11:53 AM61 °FPartly sunny.6 mph62%30.06 "Hg10 mi
10:53 AM60 °FPartly sunny.6 mph65%30.05 "Hg10 mi
9:53 AM58 °FOvercast.6 mph70%30.06 "Hg10 mi
8:53 AM57 °FOvercast.6 mph74%30.05 "Hg10 mi
7:53 AM55 °FOvercast.7 mph77%30.05 "Hg10 mi
6:53 AM54 °FMore clouds than sun.8 mph80%30.05 "Hg10 mi
5:53 AM54 °FMostly cloudy.6 mph80%30.05 "Hg10 mi
4:53 AM54 °FMostly cloudy.5 mph80%30.04 "Hg10 mi
3:53 AM54 °FOvercast.3 mph83%30.03 "Hg10 mi
2:53 AM54 °FMostly cloudy.7 mph83%30.03 "Hg10 mi
1:53 AM55 °FOvercast.6 mph80%30.03 "Hg10 mi
12:53 AM54 °FPassing clouds.3 mph83%30.03 "Hg10 mi
11:53 PM
Mon, May 25
55 °FPassing clouds.5 mph80%30.04 "Hg10 mi
10:53 PM56 °FPassing clouds.7 mph77%30.03 "Hg10 mi
9:53 PM58 °FPassing clouds.9 mph72%30.02 "Hg10 mi
8:53 PM60 °FPartly sunny.7 mph69%30.01 "Hg10 mi
7:53 PM61 °FOvercast.10 mph70%30.00 "Hg10 mi
Weather by CustomWeather, © 2015

See weather overviewHow to use our weather pages